Regional Weather Roundup
Issued by NWS Upton, NY

Current Version | Previous Version | Text Only | Print | Product List | Glossary On
Versions: 1 2 3 4 5 6 7 8 9 10 11 12 13 14 15 16 17 18 19 20 21 22 23 24 25 26 27
000
ASUS41 KOKX 260109
RWROKX

REGIONAL WEATHER ROUNDUP
NATIONAL WEATHER SERVICE NEW YORK NY
900 PM EDT TUE APR 25 2017

NOTE: "FAIR" INDICATES FEW OR NO CLOUDS BELOW 12,000 FEET WITH NO
SIGNIFICANT WEATHER AND/OR OBSTRUCTIONS TO VISIBILITY.

NYZ071-072-176-178-NJZ106-104-260200-
NEW YORK CITY METRO AREA

CITY           SKY/WX    TMP DP  RH WIND       PRES   REMARKS
Central Park   LGT RAIN  51  51 100 E12G22    29.93F FOG
Wall St Helipt LGT RAIN  52  51  97 NE22      29.89S FOG
Bronx Bot Gard   N/A     52  50  93 E9        29.91S
LaGuardia APRT RAIN      52  50  93 NE23      29.89S FOG
Kennedy INTL   RAIN      54  53  97 NE16      29.89S FOG
Breezy Point     N/A     52 N/A N/A NE15G21     N/A
Newark/Liberty HVY RAIN  53  51  93 NE16      29.90R FOG
Teterboro      HVY RAIN  54  52  93 NE16G28   29.90R FOG
$$

NYZ177-179-078>081-260200-
LONG ISLAND NEW YORK

CITY           SKY/WX    TMP DP  RH WIND       PRES   REMARKS
Jones Beach      N/A     54 N/A N/A E30G39      N/A
Matinecock PT  NOT AVBL
Farmingdale    CLOUDY    54  53  97 E16G23    29.89F
MacArthur/ISP  LGT RAIN  55  55 100 NE14      29.90F FOG
Shirley        LGT RAIN  55  54  96 E9        29.93F FOG
Mt Sinai Harb    N/A    N/A N/A N/A E15G24      N/A
Westhampton    LGT RAIN  54  52  93 E13G23    29.94F FOG
East Hampton   RAIN      51  50  97 E15G22    29.96F
Montauk          N/A     51  51 100 E12G25    30.00
$$

NYZ052-065-067-260200-
HUDSON VALLEY

CITY           SKY/WX    TMP DP  RH WIND       PRES   REMARKS
White Plains   LGT RAIN  53  50  89 E15G21    29.92S FOG
Larchmont Harb   N/A     50 N/A N/A NE29        N/A
Croton O-T Hud   N/A     52 N/A N/A E3G12       N/A
Newburgh       DRIZZLE   52  52 100 E14G21    29.97F FOG
Montgomery     LGT RAIN  52  50  93 NE13      29.95F
Poughkeepsie   CLOUDY    51  49  92 N7        29.97F
Albany         LGT RAIN  52  46  80 NE6       30.05S
$$

NJZ001-105-106-008-010-013-015-019>022-104-260200-
NEW JERSEY

CITY           SKY/WX    TMP DP  RH WIND       PRES   REMARKS
Newark/Liberty HVY RAIN  53  51  93 NE16      29.90R FOG
Teterboro      HVY RAIN  54  52  93 NE16G28   29.90R FOG
Caldwell       LGT RAIN  54  52  93 E13       29.92R FOG
Somerville     LGT RAIN  55  53  93 NE12G22   29.85F
Linden         LGT RAIN  54  51  91 E13G20    29.89S
Sussex         LGT RAIN  52  51  97 NE14G23   29.93S FOG
Andover          N/A     52  51  97 VRB5      29.90S
Trenton        LGT RAIN  55  54  96 NE17      29.82F
Millville      LGT RAIN  57  57 100 NE14      29.73S FOG
Atlantic City  LGT RAIN  59  57  93 E15G28    29.74S
Wrightstown    LGT RAIN  54  53  96 NE15      29.78F
Toms River     RAIN      54  53  97 NE10G22   29.81F
Belmar         RAIN      51  51 100 NE14      29.84F
$$

PAZ047>061-062-071-260200-
EASTERN PENNSYLVANIA

CITY           SKY/WX    TMP DP  RH WIND       PRES   REMARKS
Philadelphia   CLOUDY    56  54  93 NE16G26   29.79S FOG
Allentown      LGT RAIN  56  52  86 NE14      29.86S FOG
Scranton       CLOUDY    55  50  83 NE12G23   29.86F
$$

CTZ002-004>006-009-010-012-RIZ004-006-007-MAZ004-011-015-260200-
SOUTHERN NEW ENGLAND
 IN CT

CITY           SKY/WX    TMP DP  RH WIND       PRES   REMARKS
Bradley INTL   DRIZZLE   48  47  96 N12       30.06F
Hartford       LGT RAIN  50  49  96 N8        30.04S FOG
Danbury        RAIN      49  49 100 NE10      29.99S FOG
Wtrbury/Oxford LGT RAIN  48  45  87 E15G24    30.00S VSB 1
Bridgeport     LGT RAIN  54  51  90 NE18      29.96S FOG
Meriden        LGT RAIN  52  49  89 N8        30.01F FOG
New Haven      LGT RAIN  53  51  93 NE8       29.98S FOG
Chester        DRIZZLE   50  50 100 E9G15     30.00F
Groton         LGT RAIN  54  52  93 E16       30.01S
Wilimantic     CLOUDY    51  49  92 NE10      30.05F

 IN RI

CITY           SKY/WX    TMP DP  RH WIND       PRES   REMARKS
Providence     RAIN      50  50 100 N7        30.08R FOG
Block Island   NOT AVBL
Westerly       LGT RAIN  54  53  97 E13       30.03F FOG
 IN MA

CITY           SKY/WX    TMP DP  RH WIND       PRES   REMARKS
Boston         LGT RAIN  47  47 100 NE14      30.13F FOG
Worcester      LGT RAIN  43  41  93 NE12G21   30.09F FOG
Westfield      LGT RAIN  48  48 100 NE8       30.08R FOG
Provincetown   LGT RAIN  51  50  96 E18G25    30.10F
Nantucket      CLOUDY    51  49  92 E22G30    30.05S FOG
$$

ANZ330-335-338-340-345-350-353-355-260200-
COASTAL MARINE OBSERVATIONS


STATION/POSITION TIME  SKY/WX   TEMP    WIND        PRES    VSBY  WAVE
                                AIR SEA DIR/SP/G                  HT/PER
                 (UTC)          (F)     (DEG/KT/KT) (MB)    (MI)  (FT/S)
NY HARB ENTRANCE 2350            50 47   60/ 23/ 27 1010.1          9/11
20 S FIRE ISLAND 2350            50 47   80/ 19/ 23 1010.1         10/10
GREAT SOUTH BAY  0030            53 55   80/ 23/ 29   N/A
23 SSW MONTAUK P 2350            49 45              1013.6          9/10
15 E BARNEGAT LI 0030               49                N/A          11/11
HUDSON CANYON    2350            53 47  110/ 19/ 23 1009.5         15/11
KINGS POINT      0030            51 48   90/ 12/ 20 1012.2
EXECUTION ROCKS  NOT AVBL
CENTRAL LI SOUND NOT AVBL
EASTERN LI SOUND NOT AVBL
ROBBINS REEF     0030            53      60/ 23/ 26 1011.6
$$


>>>>>>>>>>>>>>>>>>>>>>>>>>>> KEY <<<<<<<<<<<<<<<<<<<<<<<<<<<
>                                                          <
>     SKY/WX - Sky Condition/Present Weather               <
>     TMP    - Temperature in Fahrenheit                   <
>     DP     - Dew Point in Fahrenheit                     <
>     RH     - Relative Humidity in Percent                <
>     WIND   - Direction (from) and Speed in MPH           <
>     PRES   - Mean Sea Level Pressure (inches of Hg)      <
>     WCI    - Wind Chill Index                            <
>     VSB    - VISIBILITY IN MILES                         <
>     HX     - HEAT INDEX                                  <
>     TC     - TEMPERATURE IN CELSIUS                      <
>     VRB    - VARIABLE WIND DIRECTION                     <
>                                                          <
>>>>>>>>>>>>>>>>>>>>>>>>>>>> KEY <<<<<<<<<<<<<<<<<<<<<<<<<<<




USA.gov is the U.S. government's official web portal to all federal, state and local government web resources and services.